EW5444 Weather Reports


time (UTC)temp
F
wind
direction
speed
knots
gust
knots
rain 1hr
in
rain 24hr
in
rain mn
in
humidity
%
barometer
mb
20260507044006 52 349 0.0 0.0 0.00 0.00 0.01 93 1013.1
20260507043007 52 349 0.0 0.0 0.00 0.00 0.01 93 1013.0
20260507042006 52 349 0.0 0.0 0.00 0.00 0.01 93 1012.9
20260507041006 52 349 0.0 0.0 0.00 0.00 0.01 93 1012.9
20260507040006 52 349 0.0 0.0 0.00 0.00 0.01 93 1012.9
20260507035006 52 349 0.0 0.0 0.00 0.00 0.01 93 1012.8
20260507034007 52 349 0.0 1.7 0.00 0.00 0.01 94 1012.8
20260507033006 52 349 0.0 1.7 0.00 0.00 0.01 94 1012.8
20260507032006 52 349 0.0 0.0 0.00 0.00 0.01 94 1012.8
20260507031006 52 350 0.0 0.0 0.00 0.00 0.01 94 1012.7
20260507030006 52 349 0.0 0.0 0.00 0.00 0.01 94 1012.7
20260507025006 52 349 0.0 0.0 0.00 0.00 0.01 94 1012.8
20260507024007 53 349 0.0 0.0 0.00 0.00 0.00 94 1012.8
20260507023006 53 349 0.0 0.0 0.00 0.00 0.00 94 1012.8
20260507022007 53 350 0.0 0.0 0.00 0.00 0.00 94 1012.8
20260507021006 53 349 0.0 0.0 0.00 0.00 0.00 94 1012.8
20260507020006 54 349 0.0 0.0 0.00 0.00 0.00 93 1012.8
20260507015006 54 349 0.0 0.0 0.00 0.00 0.00 93 1012.8
20260507014006 54 349 0.0 0.0 0.00 0.00 0.00 93 1012.7
20260507013006 54 349 0.0 0.0 0.00 0.00 0.00 93 1012.7
20260507012006 54 349 0.0 2.6 0.00 0.00 0.00 93 1012.7
20260507011006 54 80 0.0 0.0 0.00 0.00 0.00 93 1012.6
20260507010006 55 80 0.0 0.0 0.00 0.00 0.00 93 1012.7
20260507005007 55 80 0.0 1.7 0.00 0.00 0.00 93 1012.8
20260507004006 55 79 1.7 1.7 0.00 0.00 0.00 93 1012.8
20260507003006 55 79 1.7 1.7 0.00 0.00 0.00 93 1012.7
20260507002006 55 84 0.9 1.7 0.00 0.00 0.00 93 1012.7
20260507001006 56 102 0.9 2.6 0.00 0.00 0.00 93 1012.6
20260507000006 56 103 0.0 0.0 0.00 0.00 0.00 93 1012.7
20260506235006 56 101 0.0 1.7 0.00 0.00 0.00 93 1012.7
20260506234006 56 114 0.9 1.7 0.00 0.00 0.00 93 1012.7
20260506233006 56 103 0.0 0.9 0.00 0.00 0.00 92 1012.6
20260506232006 56 138 1.7 3.5 0.00 0.00 0.00 92 1012.8
20260506231006 56 135 2.6 6.1 0.00 0.00 0.00 92 1013.0
20260506230007 56 120 0.9 3.5 0.00 0.00 0.00 92 1012.7
20260506225007 56 26 0.0 1.7 0.00 0.00 0.00 91 1012.6
20260506224006 56 96 1.7 2.6 0.00 0.00 0.00 91 1012.7
20260506223006 56 164 0.9 7.8 0.00 0.00 0.00 91 1012.9
20260506222006 56 176 2.6 4.3 0.00 0.00 0.00 90 1012.8
20260506221006 56 169 0.9 2.6 0.00 0.00 0.00 90 1012.5
20260506220006 57 215 2.6 4.3 0.00 0.00 0.00 89 1012.6
20260506215007 57 187 1.7 5.2 0.00 0.00 1.53 88 1012.5
20260506214007 57 171 4.3 7.0 0.00 0.00 1.53 88 1012.5
20260506213007 58 187 7.0 8.7 0.00 0.00 1.53 87 1012.7
20260506212006 58 208 1.7 4.3 0.00 0.00 1.53 87 1012.5
20260506211007 59 166 1.7 6.1 0.00 0.00 1.53 87 1012.5
20260506210006 59 191 1.7 4.3 0.00 0.00 1.53 87 1012.4
20260506205006 59 218 0.0 1.7 0.00 0.00 1.53 86 1012.3
20260506204006 59 156 1.7 3.5 0.00 0.00 1.53 86 1012.3
20260506203006 59 162 3.5 6.1 0.00 0.00 1.53 86 1012.2
20260506202007 60 145 2.6 6.1 0.00 0.00 1.53 87 1012.1
20260506201006 60 180 4.3 6.1 0.00 0.00 1.53 86 1012.1
20260506200007 61 179 4.3 7.0 0.00 0.00 1.53 84 1011.8
20260506195007 62 148 0.0 0.0 0.00 0.00 1.53 83 1011.6
20260506194006 62 166 0.0 0.0 0.00 0.00 1.53 84 1011.4
20260506193007 62 178 0.0 0.0 0.00 0.00 1.53 85 1011.3
20260506192006 62 158 0.0 0.0 0.00 0.00 1.53 84 1011.2
20260506191006 62 218 0.0 4.3 0.00 0.00 1.53 84 1011.0
20260506190007 62 261 0.0 5.2 0.00 0.00 1.53 83 1010.8
20260506185006 63 204 2.6 5.2 0.00 0.00 1.53 83 1010.8
20260506184008 63 203 2.6 7.8 0.00 0.00 1.53 82 1010.8
20260506183007 63 274 1.7 6.1 0.00 0.00 1.53 82 1010.7
20260506182006 63 229 2.6 6.1 0.00 0.00 1.53 81 1010.6
20260506181006 63 255 1.7 4.3 0.00 0.00 1.53 82 1010.5
20260506180007 64 266 5.2 8.7 0.00 0.00 1.53 80 1010.4
20260506175007 65 238 2.6 6.1 0.00 0.00 1.53 79 1010.4
20260506174007 65 229 0.0 6.1 0.00 0.00 1.53 79 1010.3
20260506173007 65 258 3.5 7.8 0.00 0.00 1.53 78 1010.1
20260506172006 65 287 2.6 6.1 0.00 0.00 1.53 78 1010.1
20260506171007 65 271 6.1 11.3 0.00 0.00 1.53 76 1009.9
20260506170007 66 255 2.6 13.0 0.00 0.00 1.53 73 1009.8
20260506165008 66 241 3.5 12.2 0.00 0.00 1.53 72 1009.9
20260506164007 66 135 1.7 15.6 0.00 0.00 1.53 70 1009.9
20260506163006 66 292 8.7 16.5 0.00 0.00 1.53 68 1009.9
20260506162007 67 295 12.2 15.6 0.00 0.00 1.53 69 1009.9
20260506161007 66 258 5.2 15.6 0.00 0.00 1.53 70 1009.7
20260506160007 67 264 8.7 15.6 0.00 0.00 1.53 74 1009.8
20260506155007 66 287 7.8 15.6 0.00 0.00 1.53 76 1009.8
20260506154007 66 270 11.3 16.5 0.00 0.00 1.53 79 1009.8
20260506153007 65 289 15.6 19.1 0.00 0.00 1.53 81 1009.7
20260506152007 65 283 10.4 17.4 0.00 0.00 1.53 86 1009.7
20260506151008 64 288 10.4 16.5 0.00 0.00 1.53 90 1009.8
20260506150008 65 284 15.6 18.2 0.00 0.00 1.51 89 1009.8
20260506145007 66 281 10.4 18.2 0.00 0.00 1.51 82 1009.8
20260506144007 67 296 8.7 15.6 0.00 0.00 1.51 83 1009.7
20260506143007 68 278 13.0 19.1 0.00 0.00 1.51 80 1009.5
20260506142007 69 295 11.3 15.6 0.00 0.00 1.51 78 1009.5
20260506141007 69 266 9.6 18.2 0.00 0.00 1.51 79 1009.5
20260506140007 68 307 2.6 14.8 0.00 0.00 1.51 83 1009.4
20260506135007 67 288 9.6 11.3 0.00 0.00 1.51 83 1009.6
20260506134007 66 288 9.6 12.2 0.00 0.00 1.51 83 1009.8
20260506133007 66 293 10.4 14.8 0.00 0.00 1.51 79 1009.9
20260506132007 65 334 9.6 17.4 0.00 0.00 1.51 77 1009.9
20260506131007 66 207 8.7 19.1 0.00 0.00 1.51 76 1010.1
20260506130007 65 327 6.1 16.5 0.00 0.00 1.51 76 1010.3
20260506125007 66 308 5.2 23.5 0.00 0.00 1.51 71 1010.3
20260506124007 70 278 18.2 22.6 0.00 0.00 1.51 71 1010.1
20260506123008 70 291 11.3 18.2 0.00 0.00 1.51 76 1009.9
20260506122007 70 268 7.8 16.5 0.00 0.00 1.51 80 1009.8
20260506121007 69 242 10.4 13.9 0.00 0.00 1.51 79 1009.8
20260506120007 68 215 7.0 14.8 0.00 0.00 1.51 80 1009.6
20260506115007 68 218 13.0 15.6 0.00 0.00 1.51 79 1009.7
20260506114008 69 194 7.8 13.9 0.00 0.00 1.51 78 1009.7
20260506113007 69 210 4.3 14.8 0.00 0.00 1.51 79 1009.7
20260506112007 69 181 7.8 15.6 0.00 0.00 1.51 80 1009.8
20260506111007 68 218 7.0 14.8 0.00 0.00 1.51 83 1009.8
20260506110007 67 218 11.3 15.6 0.00 0.00 1.51 84 1009.9
20260506105007 67 212 5.2 16.5 0.00 0.00 1.51 83 1010.0
20260506104007 67 212 10.4 17.4 0.00 0.00 1.51 81 1010.0
20260506103007 68 242 5.2 18.2 0.00 0.00 1.51 80 1010.1
20260506102007 68 205 9.6 18.2 0.00 0.00 1.51 78 1010.1
20260506101007 69 198 9.6 20.9 0.00 0.00 1.51 79 1010.1
20260506100008 68 250 16.5 20.0 0.00 0.00 1.51 79 1010.0
20260506095007 68 194 8.7 13.9 0.00 0.00 1.51 80 1010.0
20260506094007 67 190 11.3 16.5 0.00 0.00 1.51 81 1010.0
20260506093008 67 224 11.3 16.5 0.00 0.00 1.51 82 1010.0
20260506092007 66 229 12.2 20.9 0.00 0.00 1.51 83 1009.9
20260506091007 66 223 10.4 18.2 0.00 0.00 1.51 84 1009.9
20260506090008 66 246 9.6 18.2 0.00 0.00 1.51 85 1010.0
20260506085007 66 219 15.6 20.0 0.00 0.00 1.51 86 1010.0
20260506084007 65 163 9.6 18.2 0.00 0.00 1.51 92 1009.8
20260506083007 64 260 8.7 13.9 0.00 0.00 1.51 94 1009.8
20260506082007 63 215 9.6 13.0 0.00 0.00 1.51 94 1010.0
20260506081008 62 224 5.2 14.8 0.00 0.00 1.51 94 1010.1
20260506073007 62 276 0.0 4.3 0.00 0.00 1.50 94 1010.0
20260506072007 62 138 0.0 2.6 0.00 0.00 1.50 94 1010.0
20260506071007 61 153 0.0 3.5 0.00 0.00 1.50 94 1009.9
20260506062007 60 90 0.0 0.0 0.00 0.00 1.50 94 1009.8
20260506061007 60 90 0.0 0.0 0.00 0.00 1.50 94 1009.8
20260506051008 58 288 0.0 2.6 0.00 0.00 1.49 94 1009.8
20260506045008 58 288 0.0 2.6 0.00 0.00 1.49 94 1009.5